Location: Kaseke
(18.0171°S, 31.0526°E)
Time: 11:21:41
(UTC+00:00)

Cosmos 1953 - Pass Details

Date: 14 July 2020
Orbit: 540 x 557 km, 82.5° (Epoch: 07 August)

Event Time Altitude Azimuth Distance (km) Brightness Sun altitude
Rises 03:35:18 0° 180° (S) 2,729 5.7 -12.5°
Reaches altitude 10° 03:37:30 10° 176° (S) 1,827 4.8 -12.0°
Maximum altitude 03:41:29 62° 95° (E) 617 2.8 -11.1°
Drops below altitude 10° 03:45:23 10° 14° (NNE) 1,797 5.4 -10.2°
Sets 03:47:32 0° 11° (N) 2,680 6.3 -9.7°
